カタログに戻る

CZ-3B DEB

運用中GTO
NORAD 40848·DEBRIS·🇨🇳 China

打ち上げ Dec 19, 2011 から Xichang Satellite Launch Center

Loading…

TLE

古いSource: Space-Track

元期: Sep 13, 2026, 10:21 UTC

1 40848U 11077AD  26256.43166247 -.00000515  00000-0 -11911-1 0  9991
2 40848  26.9786 339.6577 7370263  54.4676 353.3979  1.90964989 80770

AllMySatでCZ-3B DEBをリアルタイム追跡

Download on the App Store